Regional Weather Roundup
Issued by NWS Goodland, KS

Home | Current Version | Previous Version | Graphics & Text | Print | Product List | Glossary On
Versions: 1 2 3 4 5 6 7 8 9 10 11 12 13 14 15 16 17 18 19 20 21 22 23 24 25 26 27 28 29 30 31 32 33 34 35 36 37 38 39 40 41 42 43 44 45 46 47 48 49 50
000
ASUS43 KGLD 290808
RWRGLD

GOODLAND FORECAST AREA HOURLY WEATHER ROUNDUP
NATIONAL WEATHER SERVICE GOODLAND KS
200 AM MDT SAT AUG 29 2015

...OFFICIAL OBSERVATIONS...

CITY           SKY/WX    TMP DP  RH WIND       PRES   REMARKS
GOODLAND KS    CLEAR     58  54  86 W5        30.17F
HILL CITY KS   CLEAR     60  58  92 CALM      30.08F
IMPERIAL NEB   CLEAR     59  56  89 SW5       30.15F
MCCOOK NEB     CLEAR     58  56  93 W7        30.11F
AKRON CO       CLEAR     66  50  56 S10       30.23F
BURLINGTON CO  CLEAR     54  48  80 W5        30.22S
LIMON CO       CLEAR     48  44  86 N3        30.29F
$$

...UNOFFICIAL OBSERVATIONS...

CITY           SKY/WX    TMP DP  RH WIND       PRES   REMARKS
COLBY KS       CLEAR     57  57 100 W9        30.15F
GOVE KS          N/A     59  32  36 MISG        N/A
LENORA KS        N/A     61  32  33 MISG        N/A
NORTON KS      CLEAR     55  54  94 W3        30.09S
SHARON SPRINGS   N/A     58  54  86 CALM        N/A
YUMA CO          N/A     55  49  79 CALM        N/A
$$



USA.gov is the U.S. government's official web portal to all federal, state and local government web resources and services.